SXIAC LGST-LGKS

Flight info

Callsign SXIAC
Flight time 0h 26m
Altitude 1500
Route GRANDESISLAND MOKIS TRAPEZA SKALOMA
Aircraft BE9L/L-SD/C

Departure

Time 2026-04-15 13:02
Airport Sitia Airport (LGST)

Arrival

Time 2026-04-15 13:28
Airport Kasos Airport (LGKS)
Time Latitude Longitude Altitude Speed Heading
2026-04-15 12:53 35.21697 26.09887 340 ft 0 kts
2026-04-15 12:58 35.21692 26.09876 340 ft 8 kts 171°
2026-04-15 12:59 35.21610 26.10103 338 ft 21 kts 59°
2026-04-15 12:59 35.21718 26.10269 332 ft 30 kts 51°
2026-04-15 12:59 35.21879 26.10507 313 ft 40 kts 50°
2026-04-15 13:00 35.22038 26.10766 281 ft 26 kts 41°
2026-04-15 13:00 35.22030 26.10733 285 ft 14 kts 215°
2026-04-15 13:00 35.22019 26.10723 286 ft 0 kts 242°
2026-04-15 13:00 35.22016 26.10713 287 ft 8 kts 240°
2026-04-15 13:01 35.21830 26.10438 320 ft 80 kts 231°
2026-04-15 13:01 35.21351 26.09730 371 ft 126 kts 230°
2026-04-15 13:01 35.20828 26.08920 802 ft 127 kts 229°
2026-04-15 13:01 35.20474 26.07788 882 ft 160 kts 269°
2026-04-15 13:02 35.20546 26.06383 1173 ft 163 kts 274°
2026-04-15 13:02 35.20644 26.05020 1415 ft 164 kts 284°
2026-04-15 13:02 35.21282 26.03859 1449 ft 170 kts 329°
2026-04-15 13:02 35.22419 26.03554 1440 ft 169 kts 14°
2026-04-15 13:03 35.23374 26.04332 1438 ft 169 kts 59°
2026-04-15 13:03 35.23541 26.05671 1409 ft 155 kts 105°
2026-04-15 13:03 35.22989 26.06763 1436 ft 149 kts 124°
2026-04-15 13:03 35.22366 26.07807 1430 ft 146 kts 123°
2026-04-15 13:04 35.21759 26.08816 1427 ft 144 kts 121°
2026-04-15 13:04 35.21473 26.10016 1442 ft 151 kts 95°
2026-04-15 13:04 35.21352 26.11328 1453 ft 160 kts 96°
2026-04-15 13:04 35.21220 26.12716 1438 ft 165 kts 96°
2026-04-15 13:05 35.21091 26.14132 1438 ft 168 kts 96°
2026-04-15 13:05 35.20959 26.15565 1435 ft 169 kts 96°
2026-04-15 13:05 35.20829 26.16990 1428 ft 164 kts 96°
2026-04-15 13:05 35.20703 26.18361 1422 ft 161 kts 95°
2026-04-15 13:06 35.20651 26.19718 1422 ft 158 kts 86°
2026-04-15 13:06 35.20695 26.21051 1439 ft 157 kts 90°
2026-04-15 13:06 35.20692 26.22424 1430 ft 162 kts 89°
2026-04-15 13:06 35.20694 26.23821 1446 ft 165 kts 90°
2026-04-15 13:07 35.20654 26.25230 1437 ft 167 kts 95°
2026-04-15 13:07 35.20542 26.26653 1437 ft 168 kts 94°
2026-04-15 13:07 35.20454 26.28079 1431 ft 169 kts 89°
2026-04-15 13:07 35.20673 26.29503 1436 ft 168 kts 78°
2026-04-15 13:08 35.20916 26.30910 1436 ft 168 kts 79°
2026-04-15 13:08 35.21164 26.32298 1436 ft 168 kts 78°
2026-04-15 13:08 35.21412 26.33693 1436 ft 168 kts 78°
2026-04-15 13:08 35.21658 26.35097 1434 ft 168 kts 78°
2026-04-15 13:09 35.21900 26.36494 1435 ft 168 kts 78°
2026-04-15 13:09 35.22142 26.37895 1436 ft 168 kts 79°
2026-04-15 13:09 35.22385 26.39303 1434 ft 168 kts 78°
2026-04-15 13:09 35.22805 26.40636 1424 ft 169 kts 58°
2026-04-15 13:10 35.23396 26.41884 1438 ft 168 kts 66°
2026-04-15 13:10 35.23920 26.43174 1436 ft 168 kts 66°
2026-04-15 13:10 35.24423 26.44474 1434 ft 168 kts 67°
2026-04-15 13:10 35.24916 26.45760 1432 ft 168 kts 67°
2026-04-15 13:11 35.25200 26.46510 1431 ft 168 kts 67°
2026-04-15 13:11 35.25695 26.47820 1428 ft 168 kts 67°
2026-04-15 13:11 35.26188 26.49128 1430 ft 168 kts 67°
2026-04-15 13:11 35.26683 26.50438 1429 ft 168 kts 67°
2026-04-15 13:12 35.27171 26.51735 1427 ft 168 kts 67°
2026-04-15 13:12 35.27664 26.53043 1430 ft 168 kts 67°
2026-04-15 13:12 35.28155 26.54346 1431 ft 168 kts 67°
2026-04-15 13:12 35.28648 26.55654 1433 ft 167 kts 67°
2026-04-15 13:13 35.29132 26.56942 1433 ft 168 kts 67°
2026-04-15 13:13 35.29626 26.58256 1432 ft 168 kts 67°
2026-04-15 13:13 35.30112 26.59553 1430 ft 168 kts 67°
2026-04-15 13:13 35.30602 26.60857 1432 ft 168 kts 67°
2026-04-15 13:14 35.31096 26.62167 1444 ft 167 kts 67°
2026-04-15 13:14 35.31584 26.63470 1433 ft 168 kts 67°
2026-04-15 13:14 35.32082 26.64795 1430 ft 168 kts 67°
2026-04-15 13:14 35.32574 26.66108 1431 ft 168 kts 68°
2026-04-15 13:15 35.32781 26.66659 1429 ft 169 kts 68°
2026-04-15 13:15 35.33275 26.67976 1431 ft 169 kts 68°
2026-04-15 13:15 35.33769 26.69295 1431 ft 169 kts 68°
2026-04-15 13:15 35.34263 26.70617 1434 ft 169 kts 68°
2026-04-15 13:16 35.34560 26.71998 1418 ft 168 kts 96°
2026-04-15 13:16 35.33983 26.73157 1421 ft 159 kts 142°
2026-04-15 13:16 35.32937 26.73388 1415 ft 151 kts 188°
2026-04-15 13:16 35.32061 26.72624 1449 ft 167 kts 233°
2026-04-15 13:17 35.31710 26.71189 1465 ft 181 kts 262°
2026-04-15 13:17 35.31539 26.69629 1450 ft 189 kts 262°
2026-04-15 13:17 35.31376 26.67993 1444 ft 194 kts 265°
2026-04-15 13:17 35.31746 26.66396 1434 ft 203 kts 310°
2026-04-15 13:18 35.32916 26.65544 1429 ft 193 kts 355°
2026-04-15 13:18 35.34155 26.65911 1425 ft 182 kts 40°
2026-04-15 13:18 35.34800 26.67188 1442 ft 175 kts 74°
2026-04-15 13:18 35.35236 26.68602 1440 ft 176 kts 71°
2026-04-15 13:19 35.35666 26.70016 1440 ft 176 kts 72°
2026-04-15 13:19 35.36106 26.71431 1437 ft 172 kts 71°
2026-04-15 13:19 35.36525 26.72784 1432 ft 163 kts 71°
2026-04-15 13:19 35.36925 26.74076 1435 ft 156 kts 72°
2026-04-15 13:20 35.37314 26.75334 1442 ft 154 kts 72°
2026-04-15 13:20 35.37697 26.76580 1443 ft 155 kts 72°
2026-04-15 13:20 35.38087 26.77845 1443 ft 157 kts 72°
2026-04-15 13:20 35.38486 26.79138 1366 ft 157 kts 71°
2026-04-15 13:21 35.38878 26.80412 1207 ft 156 kts 71°
2026-04-15 13:21 35.39266 26.81670 1055 ft 155 kts 71°
2026-04-15 13:21 35.39653 26.82925 938 ft 153 kts 71°
2026-04-15 13:21 35.40261 26.83952 918 ft 150 kts 40°
2026-04-15 13:22 35.41252 26.84248 921 ft 153 kts 356°
2026-04-15 13:22 35.42239 26.83760 942 ft 151 kts 341°
2026-04-15 13:22 35.43223 26.83330 937 ft 148 kts 345°
2026-04-15 13:22 35.44203 26.82921 939 ft 147 kts 345°
2026-04-15 13:23 35.44988 26.82106 926 ft 153 kts 300°
2026-04-15 13:23 35.45099 26.81785 934 ft 152 kts 288°
2026-04-15 13:23 35.45186 26.81082 982 ft 146 kts 273°
2026-04-15 13:24 35.44958 26.79887 935 ft 142 kts 240°
2026-04-15 13:24 35.44265 26.79096 921 ft 132 kts 196°
2026-04-15 13:24 35.43396 26.78856 933 ft 125 kts 184°
2026-04-15 13:24 35.42590 26.79062 922 ft 115 kts 140°
2026-04-15 13:25 35.42200 26.79864 932 ft 108 kts 98°
2026-04-15 13:25 35.42017 26.80778 944 ft 110 kts 105°
2026-04-15 13:25 35.41801 26.81686 950 ft 111 kts 105°
2026-04-15 13:25 35.41583 26.82605 991 ft 110 kts 105°
2026-04-15 13:26 35.41505 26.83526 982 ft 112 kts 77°
2026-04-15 13:26 35.41824 26.84341 955 ft 95 kts 65°
2026-04-15 13:26 35.42137 26.85054 723 ft 98 kts 65°
2026-04-15 13:26 35.42389 26.85825 544 ft 94 kts 84°
2026-04-15 13:27 35.42357 26.86596 432 ft 91 kts 96°
2026-04-15 13:27 35.42247 26.87380 391 ft 90 kts 100°
2026-04-15 13:27 35.42204 26.88147 350 ft 90 kts 90°
2026-04-15 13:27 35.42157 26.88949 279 ft 96 kts 83°
2026-04-15 13:28 35.42188 26.89771 129 ft 96 kts 93°
2026-04-15 13:28 35.42152 26.90567 18 ft 89 kts 92°
2026-04-15 13:28 35.42132 26.91114 38 ft 52 kts 92°
2026-04-15 13:28 35.42104 26.91310 41 ft 17 kts 132°
2026-04-15 13:29 35.42077 26.91421 42 ft 0 kts 94°